[[{"header":{"parameterUnit":"m.s-1","parameterCategory":1,"la1":30.2991,"la2":30.254,"lo1":-89.0895,"lo2":-89.0444,"dy":0.0017,"dx":0.0017,"nx":28,"ny":28,"refTime":"2024-12-17T09:00:00:Z","depth":0,"parameterNumber":2,"parameterNumberName":"U-component_of_WINDS"},"data":[0,0,0,0,0,0,0,0,0,0,0,0,0,0,0,0,0,0,0,0,0,0,0,0,0,0,0,0,0,0,0,0,0,0,0,0,0,0,0,0,0,0,0,0,0,0,0,0,0,0,0,0,0,0,0,0,0,0,-1.3352,-1.3352,0,-1.3337,-1.3337,-1.3337,-1.3282,-1.3281,-1.328,-1.3279,-1.3264,-1.3264,-1.3265,0,0,0,0,0,0,0,0,0,0,0,0,0,-1.3334,-1.3335,-1.3352,-1.3352,-1.3351,-1.3337,-1.3337,-1.3337,-1.3283,-1.3281,-1.328,-1.3278,-1.3263,-1.3264,-1.3265,0,0,0,0,0,0,0,0,0,0,0,0,0,-1.3333,-1.3335,-1.3352,-1.3323,-1.332,-1.3337,-1.3337,-1.3337,-1.3283,-1.3281,-1.3279,-1.3277,-1.3263,-1.3264,-1.3265,-1.3309,0,0,-1.3269,-1.3269,0,0,0,0,0,0,0,0,-1.3333,-1.3334,-1.3327,-1.3325,-1.3322,-1.331,-1.3325,-1.3328,-1.3283,-1.3297,-1.3279,-1.3277,-1.328,-1.328,-1.3281,-1.3309,-1.3308,-1.3269,-1.3269,-1.327,-1.327,0,0,0,0,0,0,0,-1.3333,-1.3334,-1.3346,-1.3327,-1.3324,-1.3311,-1.3309,-1.3325,-1.3299,-1.3296,-1.3292,-1.3291,-1.3279,-1.328,-1.3281,-1.3308,-1.3269,-1.327,-1.327,-1.3271,-1.3372,-1.3374,0,0,0,0,0,0,-1.3337,-1.3334,-1.3346,-1.3346,-1.3323,-1.3313,-1.331,-1.3315,-1.3299,-1.3295,-1.3292,-1.3288,-1.3279,-1.3279,-1.328,-1.3331,-1.327,-1.3271,-1.3272,-1.337,-1.3372,-1.3375,0,0,0,0,0,0,-1.3337,-1.3339,-1.3347,-1.3339,-1.3339,-1.3315,-1.3321,-1.3316,-1.3318,-1.3296,-1.3292,-1.3299,-1.3278,-1.3278,-1.3303,-1.3329,-1.3271,-1.3272,-1.3368,-1.3371,-1.3373,-1.3433,0,0,0,0,0,0,-1.3337,-1.3339,-1.3355,-1.334,-1.334,-1.337,-1.3323,-1.3317,-1.332,-1.3314,-1.3301,-1.3297,-1.3276,-1.3301,-1.3304,-1.333,-1.3273,-1.3365,-1.3369,-1.3372,-1.3429,-1.3438,-1.3446,0,0,0,0,0,-1.3336,-1.3372,-1.3356,-1.3358,-1.3359,-1.3372,-1.3372,-1.3347,-1.3322,-1.3339,-1.3325,-1.3298,-1.3327,-1.3304,-1.3307,-1.3334,-1.3363,-1.3368,-1.3372,-1.3425,-1.3436,-1.3445,0,0,0,0,0,0,-1.3391,-1.337,-1.3352,-1.3383,-1.338,-1.3362,-1.3382,-1.3359,-1.3362,-1.3357,-1.3326,-1.3324,-1.3353,-1.3346,-1.3321,-1.3376,-1.334,-1.3346,-1.3379,-1.339,-1.3398,-1.3399,-1.3274,0,0,0,0,0,-1.3407,-1.3419,-1.3399,-1.3429,-1.3429,-1.3406,-1.341,-1.3392,-1.3387,-1.3385,-1.3373,-1.3369,-1.3378,-1.3383,-1.339,-1.3428,-1.3424,-1.3448,-1.3456,-1.3463,-1.3468,-1.3488,-1.3498,-1.3389,-1.3389,-1.3389,0,0,-1.3439,-1.3429,-1.3438,-1.344,-1.3435,-1.3448,-1.3405,-1.342,-1.343,-1.3387,-1.3409,-1.3401,-1.3395,-1.3427,-1.344,-1.3422,-1.3498,-1.3469,-1.3475,-1.3475,-1.3494,-1.3504,-1.3513,-1.3392,-1.3392,-1.3391,0,0,-1.3505,-1.3499,-1.3523,-1.352,-1.3513,-1.3498,-1.3504,-1.3491,-1.3484,-1.3506,-1.3475,-1.3486,-1.35,-1.3498,-1.3498,-1.3566,-1.3541,-1.3569,-1.3613,-1.3633,-1.3642,-1.3649,-1.3673,-1.3683,-1.3574,-1.3574,-1.3574,0,-1.3546,-1.3565,-1.3539,-1.3557,-1.3559,-1.3522,-1.3547,-1.3545,-1.3541,-1.3543,-1.3523,-1.3541,-1.3534,-1.3565,-1.3582,-1.3584,-1.359,-1.357,-1.3643,-1.365,-1.3656,-1.3679,-1.3688,-1.3577,-1.3577,-1.3577,-1.3576,0,-1.3616,-1.363,-1.3651,-1.3648,-1.3653,-1.3674,-1.3652,-1.366,-1.3642,-1.3629,-1.3653,-1.3644,-1.3649,-1.3655,-1.3637,-1.3684,-1.3672,-1.3648,-1.3611,-1.3671,-1.3692,-1.37,-1.3582,-1.3581,-1.358,-1.3579,0,0,-1.3714,-1.3699,-1.3706,-1.3705,-1.3697,-1.3707,-1.3727,-1.3732,-1.3739,-1.3739,-1.3755,-1.377,-1.3747,-1.3748,-1.373,-1.3748,-1.3803,-1.3721,-1.372,-1.3736,-1.3854,-1.3872,-1.3883,-1.3787,-1.3788,-1.3789,-1.3855,0,-1.3777,-1.381,-1.3789,-1.3826,-1.3839,-1.3805,-1.3823,-1.382,-1.3809,-1.3819,-1.3807,-1.3818,-1.3788,-1.3788,-1.3804,-1.3792,-1.3826,-1.3788,-1.3802,-1.3802,-1.3803,-1.3893,-1.3912,-1.3974,-1.3863,-1.3864,-1.3865,0,-1.3853,-1.3857,-1.3896,-1.3886,-1.389,-1.3907,-1.391,-1.392,-1.3916,-1.3907,-1.3909,-1.3887,-1.3907,-1.3872,-1.3899,-1.3874,-1.3879,-1.3874,-1.3876,-1.3876,-1.3837,-1.3895,-1.3993,-1.4002,-1.3877,-1.3876,-1.3876,0,-1.3921,-1.3935,-1.3961,-1.3961,-1.395,-1.3962,-1.3958,-1.3953,-1.3958,-1.3961,-1.3964,-1.3969,-1.3972,-1.3977,-1.3957,-1.3934,-1.3988,-1.3951,-1.3981,-1.3982,-1.3993,-1.3992,-1.4092,-1.3997,-1.3997,-1.3997,-1.3997,0,-1.3993,-1.4018,-1.3991,-1.4006,-1.4034,-1.401,-1.4038,-1.403,-1.4026,-1.404,-1.4011,-1.4025,-1.3998,-1.401,-1.3994,-1.402,-1.4021,-1.4015,-1.401,-1.4017,-1.4018,-1.4019,-1.4014,-1.4,-1.3999,-1.3999,-1.3998,0,-1.4072,-1.4055,-1.408,-1.4068,-1.4066,-1.4087,-1.4077,-1.4091,-1.408,-1.4098,-1.41,-1.4082,-1.4094,-1.4075,-1.4085,-1.4075,-1.411,-1.4099,-1.4111,-1.4108,-1.4139,-1.4136,-1.4243,-1.4255,-1.4153,-1.4154,-1.4155,0,-1.4118,-1.4137,-1.4128,-1.4135,-1.4133,-1.4145,-1.415,-1.4128,-1.4134,-1.4133,-1.4147,-1.4157,-1.4163,-1.4184,-1.4172,-1.4179,-1.4168,-1.4205,-1.4169,-1.4175,-1.4168,-1.4167,-1.4169,-1.4212,-1.4213,-1.4214,-1.4215,0,-1.4202,-1.4194,-1.4202,-1.4208,-1.4216,-1.4219,-1.4221,-1.4229,-1.4205,-1.4214,-1.4226,-1.4231,-1.4242,-1.4252,-1.4257,-1.4253,-1.423,-1.4227,-1.4234,-1.4241,-1.4247,-1.4244,-1.4131,-1.4224,-1.4223,-1.4223,-1.4222,-1.4222,-1.4266,-1.4282,-1.4278,-1.4289,-1.4288,-1.4291,-1.4304,-1.4295,-1.4304,-1.4311,-1.4298,-1.4314,-1.4311,-1.4315,-1.4314,-1.4326,-1.431,-1.4321,-1.4323,-1.4326,-1.4331,-1.4246,-1.4327,-1.4327,-1.4327,-1.4326,-1.4326,0,-1.4349,-1.4345,-1.4356,-1.4359,-1.4368,-1.4348,-1.4349,-1.4358,-1.4372,-1.4372,-1.4379,-1.4394,-1.4404,-1.4393,-1.4401,-1.4413,-1.4403,-1.4416,-1.4415,-1.4414,-1.4345,-1.4337,-1.4424,-1.4424,-1.4424,-1.4424,-1.4424,-1.4424,-1.4393,-1.4418,-1.4409,-1.4434,-1.4431,-1.4446,-1.4449,-1.4451,-1.4451,-1.4469,-1.4477,-1.4471,-1.4466,-1.4474,-1.4483,-1.448,-1.4484,-1.4501,-1.4494,-1.4429,-1.4419,-1.441,-1.4403,-1.4502,-1.4502,-1.4562,-1.4562,-1.4563]},{"header":{"parameterUnit":"m.s-1","parameterCategory":1,"la1":30.2991,"la2":30.254,"lo1":-89.0895,"lo2":-89.0444,"dy":0.0017,"dx":0.0017,"nx":28,"ny":28,"refTime":"2024-12-17T09:00:00:Z","depth":0,"parameterNumber":3,"parameterNumberName":"V-component_of_WINDS"},"data":[0,0,0,0,0,0,0,0,0,0,0,0,0,0,0,0,0,0,0,0,0,0,0,0,0,0,0,0,0,0,0,0,0,0,0,0,0,0,0,0,0,0,0,0,0,0,0,0,0,0,0,0,0,0,0,0,0,0,0.898,0.898,0,0.896,0.8959,0.8959,0.8973,0.8973,0.8974,0.8975,0.895,0.8948,0.8947,0,0,0,0,0,0,0,0,0,0,0,0,0,0.9028,0.9027,0.898,0.898,0.898,0.896,0.8959,0.8959,0.8973,0.8973,0.8974,0.8975,0.895,0.8948,0.8947,0,0,0,0,0,0,0,0,0,0,0,0,0,0.9007,0.9027,0.898,0.8984,0.8984,0.896,0.8959,0.8959,0.8973,0.8973,0.8974,0.8975,0.895,0.8949,0.8947,0.8916,0,0,0.8941,0.894,0,0,0,0,0,0,0,0,0.9009,0.9006,0.8984,0.8984,0.8984,0.897,0.8967,0.8944,0.8972,0.8977,0.8975,0.8976,0.8955,0.8953,0.8947,0.8915,0.8914,0.8941,0.894,0.8939,0.8938,0,0,0,0,0,0,0,0.901,0.9007,0.8972,0.8983,0.8984,0.8986,0.8984,0.8963,0.8961,0.8977,0.8977,0.8975,0.8955,0.8949,0.8946,0.8913,0.8941,0.8939,0.8938,0.8937,0.8856,0.8855,0,0,0,0,0,0,0.9012,0.9008,0.8973,0.8971,0.8999,0.8984,0.8982,0.8973,0.8961,0.896,0.8974,0.8976,0.8952,0.8949,0.8946,0.891,0.8939,0.8937,0.8936,0.8857,0.8856,0.8855,0,0,0,0,0,0,0.9013,0.9008,0.8973,0.899,0.8986,0.8983,0.8972,0.8972,0.8966,0.8959,0.8959,0.8968,0.8952,0.8948,0.8924,0.8909,0.8936,0.8935,0.8858,0.8857,0.8855,0.8837,0,0,0,0,0,0,0.9014,0.9009,0.8997,0.8989,0.8985,0.8953,0.8971,0.8971,0.8963,0.8965,0.8953,0.8952,0.8953,0.8927,0.8922,0.8907,0.8933,0.8859,0.8857,0.8856,0.8838,0.8835,0.8831,0,0,0,0,0,0.9016,0.8992,0.8997,0.8992,0.8971,0.8952,0.8949,0.8951,0.8962,0.895,0.8946,0.8953,0.8911,0.8924,0.8919,0.8903,0.886,0.8858,0.8856,0.884,0.8835,0.8831,0,0,0,0,0,0,0.8996,0.8991,0.8996,0.8969,0.8961,0.8954,0.8939,0.8945,0.8933,0.8935,0.8936,0.8934,0.8908,0.8903,0.8917,0.8873,0.8887,0.8884,0.8877,0.8873,0.8869,0.8871,0.8931,0,0,0,0,0,0.8989,0.8975,0.8971,0.8947,0.8943,0.8942,0.8934,0.8936,0.8927,0.8923,0.8918,0.8908,0.8893,0.8882,0.8868,0.8838,0.8836,0.8825,0.8821,0.8818,0.8815,0.88,0.8795,0.8847,0.8847,0.8847,0,0,0.8973,0.8969,0.896,0.8943,0.8937,0.8922,0.8939,0.8922,0.891,0.892,0.8897,0.8893,0.8882,0.8855,0.8843,0.885,0.88,0.8815,0.8813,0.8811,0.8797,0.8792,0.8787,0.8845,0.8846,0.8846,0,0,0.8938,0.8933,0.8914,0.8908,0.8899,0.8899,0.8894,0.8887,0.8885,0.8862,0.887,0.8856,0.8829,0.8822,0.8814,0.8777,0.8783,0.8772,0.8753,0.8738,0.8734,0.8731,0.8718,0.8713,0.8769,0.8769,0.8769,0,0.8919,0.8898,0.8902,0.8886,0.8878,0.8889,0.8869,0.8862,0.8849,0.8843,0.8852,0.882,0.8813,0.8785,0.8776,0.877,0.8764,0.8774,0.8735,0.8731,0.8728,0.8716,0.8711,0.8768,0.8768,0.8768,0.8769,0,0.8876,0.8861,0.8846,0.8835,0.8826,0.8808,0.8809,0.8799,0.8803,0.8801,0.8779,0.8771,0.8756,0.875,0.8752,0.8722,0.8727,0.8735,0.8749,0.8722,0.871,0.8706,0.8767,0.8767,0.8767,0.8768,0,0,0.8826,0.8819,0.8814,0.8809,0.8801,0.8789,0.8772,0.8759,0.875,0.8741,0.8726,0.8704,0.8713,0.8704,0.8706,0.8693,0.8665,0.8703,0.8703,0.8696,0.8632,0.8626,0.8621,0.8669,0.8668,0.8668,0.8633,0,0.879,0.8761,0.8765,0.8737,0.8723,0.8733,0.8718,0.8711,0.871,0.8697,0.8695,0.868,0.8692,0.8687,0.8675,0.8671,0.8652,0.8674,0.8655,0.8654,0.8657,0.8615,0.8608,0.8576,0.8629,0.8628,0.8628,0,0.8745,0.8736,0.8706,0.8702,0.8696,0.8683,0.8672,0.866,0.8652,0.8652,0.8644,0.8648,0.863,0.8646,0.862,0.8635,0.8627,0.8625,0.8624,0.8622,0.8639,0.8612,0.8566,0.8561,0.8621,0.8621,0.8622,0,0.8712,0.8693,0.8673,0.8669,0.8663,0.8653,0.865,0.8643,0.8636,0.8626,0.8621,0.8608,0.8601,0.8591,0.8592,0.8603,0.8566,0.8582,0.8565,0.8565,0.8557,0.8557,0.8509,0.8552,0.8552,0.8552,0.8552,0,0.8672,0.8653,0.8658,0.8646,0.8626,0.8631,0.861,0.8608,0.8603,0.859,0.8597,0.8585,0.8587,0.8574,0.8575,0.8554,0.8551,0.855,0.855,0.8549,0.8549,0.8544,0.8546,0.8551,0.8551,0.8551,0.8551,0,0.8632,0.8634,0.8614,0.8611,0.8609,0.8595,0.8591,0.858,0.858,0.8563,0.856,0.8559,0.8545,0.8545,0.8528,0.8528,0.8503,0.8506,0.8506,0.8507,0.8491,0.8492,0.8437,0.8431,0.8478,0.8477,0.8477,0,0.8606,0.8592,0.8589,0.8581,0.8578,0.8566,0.8559,0.8563,0.8555,0.8547,0.8536,0.8523,0.8512,0.8489,0.8486,0.8474,0.8476,0.8458,0.8474,0.8474,0.8476,0.8477,0.8476,0.8454,0.8454,0.8454,0.8453,0,0.856,0.8562,0.8553,0.8544,0.8535,0.8528,0.8521,0.8514,0.8518,0.8509,0.8495,0.8487,0.8472,0.8458,0.8446,0.8442,0.8448,0.8448,0.8444,0.8443,0.8444,0.8443,0.8498,0.8449,0.845,0.845,0.845,0.845,0.8526,0.8515,0.8512,0.8501,0.8497,0.849,0.848,0.8479,0.8469,0.8457,0.846,0.8445,0.8438,0.8423,0.8418,0.8406,0.8412,0.8406,0.8404,0.8402,0.8401,0.8446,0.8404,0.8404,0.8404,0.8404,0.8404,0,0.8481,0.848,0.847,0.8461,0.8453,0.8461,0.8454,0.8446,0.8434,0.8428,0.8418,0.8403,0.839,0.8388,0.8376,0.8366,0.8369,0.8363,0.8364,0.8363,0.8396,0.8401,0.8361,0.8361,0.8361,0.8361,0.8361,0.8361,0.8457,0.8439,0.8441,0.8421,0.842,0.8406,0.8402,0.8396,0.8392,0.8375,0.8366,0.8365,0.836,0.8348,0.8337,0.8336,0.8332,0.8325,0.8325,0.8356,0.836,0.8364,0.8369,0.8324,0.8324,0.8293,0.8293,0.8293]}]]